RH
67 67 69 73 74 75 78 81 81 81 83 83 79 75 74 70 63 59 59 59 58 59 59 61 62 62 64 66 69 70 73 72 70 73 74 71 68 68 64 65 69 68 67 67 69 70 70 70 70 69 68 69 70 69 68 66 65 65 66 66 67 68 67 65 64 62 59 56 53 51 48 48 47 46 46 46 47 48 47 49 49 49 49 49 50 50 50 49 47 46 46 45 45 46 47 49 49
71 71 72 74 75 75 77 79 83 82 83 85 81 77 73 66 59 56 56 56 55 56 58 60 60 58 60 63 65 69 71 70 67 68 70 66 67 67 63 64 66 66 67 67 68 68 68 68 68 68 68 68 69 67 66 65 64 63 64 65 66 66 65 63 61 58 54 50 48 50 51 47 46 47 46 45 46 47 47 48 47 48 51 51 53 51 50 49 47 46 46 46 46 47 48 48 47
73 73 72 74 74 74 78 81 86 83 82 86 80 71 63 56 53 53 55 56 55 56 59 61 62 59 58 59 61 65 65 64 63 62 65 64 65 66 63 64 65 64 65 66 65 65 65 65 66 67 67 67 67 65 64 65 64 63 64 64 64 61 58 56 55 52 47 45 45 48 49 47 46 46 46 45 46 47 46 46 47 49 51 52 53 52 49 47 47 46 47 47 46 46 47 48 45
76 73 71 74 74 74 79 83 86 82 81 82 73 63 56 53 52 54 57 58 56 54 57 58 59 60 57 55 55 57 57 59 59 58 62 63 62 62 62 62 62 62 63 63 62 62 63 62 64 66 65 64 62 61 62 62 62 64 65 64 60 56 52 50 50 48 43 41 42 45 47 47 48 49 48 47 47 48 47 46 49 52 52 52 53 53 50 48 48 48 48 48 46 44 42 44 42
77 73 71 73 74 76 81 83 84 82 81 77 67 60 55 55 56 59 60 60 59 55 56 56 55 56 54 53 51 53 56 57 58 57 59 61 60 62 63 61 60 60 61 60 59 60 60 60 60 61 61 59 58 57 58 58 59 63 63 61 58 53 50 49 47 46 44 41 40 43 47 49 51 51 50 50 50 50 50 51 53 53 53 53 54 53 51 49 50 50 50 48 45 41 35 35 35
76 73 72 75 74 78 82 83 85 83 81 74 62 58 58 57 57 57 58 59 61 57 54 52 50 48 50 51 50 51 54 55 57 58 57 57 58 61 64 62 60 59 59 59 57 57 57 57 57 57 57 56 56 55 54 55 57 59 60 59 57 53 49 47 45 45 45 44 43 44 48 51 52 54 54 52 51 50 52 53 52 51 52 55 55 51 49 49 50 50 47 43 41 35 28 27 28
75 75 74 77 76 77 81 81 84 84 81 73 59 56 58 57 55 53 54 55 57 57 52 49 47 44 47 48 49 51 52 52 54 56 55 54 56 60 63 62 59 57 57 56 55 55 55 55 55 56 56 57 57 55 53 53 56 60 61 61 58 54 51 49 47 46 47 48 48 48 51 53 53 57 58 54 52 50 53 55 52 51 51 53 53 49 47 48 51 50 43 35 31 27 24 24 26
72 74 73 77 78 77 79 79 80 83 78 65 57 57 58 57 55 55 56 56 57 57 54 52 47 45 50 50 50 50 49 49 49 51 52 55 58 61 64 63 58 54 54 53 51 51 53 54 53 54 55 56 57 56 54 54 55 57 61 61 57 55 53 52 50 49 49 51 52 49 52 53 52 56 58 56 54 51 53 57 55 51 50 50 50 48 47 48 51 50 39 28 23 21 21 23 27
71 73 76 78 79 76 76 79 80 84 76 60 58 58 57 57 54 54 56 58 59 56 54 52 46 45 52 52 51 49 46 45 43 45 49 55 60 59 61 62 59 54 52 50 48 48 49 51 51 52 52 53 56 57 56 55 54 54 58 58 54 54 54 53 52 51 50 52 52 51 52 53 53 54 56 56 55 53 52 55 55 51 50 50 50 48 48 49 51 48 34 23 20 19 20 23 26
73 74 78 79 79 78 78 80 80 83 75 61 60 60 60 58 55 56 57 62 62 57 52 48 43 44 50 52 52 48 44 43 42 43 47 53 56 55 58 59 57 53 49 47 47 47 48 50 50 50 51 53 56 58 56 54 53 53 55 55 53 54 55 55 54 52 51 51 51 52 53 53 53 54 55 56 56 55 55 55 53 50 51 51 51 48 47 49 49 45 31 22 20 20 20 21 24
73 73 77 81 80 80 80 81 80 78 75 65 60 63 64 61 59 58 58 63 59 54 51 45 41 42 46 50 53 48 43 43 45 47 48 52 54 54 57 58 55 50 46 45 45 46 47 49 50 51 53 55 56 56 56 53 51 50 52 52 52 54 56 57 57 54 53 52 52 56 56 53 53 53 53 54 56 57 58 57 53 52 52 52 50 48 48 49 49 43 32 24 22 21 21 21 23
74 75 78 83 82 83 82 81 80 78 76 66 61 64 63 61 60 58 59 62 58 56 53 46 41 39 40 46 53 52 47 45 48 51 52 56 57 56 58 59 55 49 48 46 43 44 45 45 47 49 50 51 53 54 53 53 49 47 49 50 51 54 57 58 59 56 56 54 53 60 61 56 54 53 53 54 55 57 59 57 53 54 54 53 50 47 48 49 48 42 33 27 24 22 22 22 22
76 78 80 83 82 85 83 81 80 79 77 66 62 64 62 62 62 60 61 62 62 61 55 48 42 37 37 42 51 55 53 51 50 52 56 60 61 60 62 63 57 52 51 48 45 46 45 44 43 45 46 47 50 51 51 50 48 46 47 49 52 56 59 61 62 58 57 56 54 62 64 60 59 57 55 54 54 56 60 57 53 54 54 52 48 46 48 49 46 39 32 28 25 23 23 23 20
74 75 78 82 82 85 82 81 82 78 76 66 63 64 62 62 62 61 61 62 64 61 55 51 44 37 35 40 51 56 53 52 51 54 59 61 62 64 65 66 61 56 55 53 50 50 49 48 47 47 48 50 52 52 52 52 51 49 50 53 56 58 61 61 64 62 58 56 55 62 65 63 62 62 57 53 53 55 57 54 53 54 52 51 47 46 48 48 43 36 32 29 25 24 24 22 18
72 71 77 82 79 84 81 80 81 77 72 67 66 65 63 61 59 59 59 62 62 59 58 55 51 44 36 39 48 50 49 49 52 57 61 60 62 64 65 66 64 59 58 58 55 54 55 55 54 54 55 56 57 57 58 58 57 57 57 60 61 62 62 60 63 65 60 58 58 62 66 63 62 62 58 55 54 54 54 52 52 54 51 50 47 45 47 45 39 33 30 28 25 25 24 20 18
70 68 75 81 78 80 80 79 80 76 69 64 64 64 63 62 60 57 57 63 60 57 61 59 57 53 42 40 41 42 45 47 53 59 59 57 59 61 62 63 62 61 60 59 59 58 59 59 58 58 59 59 60 61 62 62 60 60 62 64 65 63 62 62 63 63 61 64 64 63 66 64 62 61 60 58 56 54 54 52 51 51 49 47 46 45 45 42 34 30 29 26 26 27 25 22 22
68 67 71 75 77 75 75 77 75 74 68 62 61 62 64 64 63 58 54 60 57 54 62 60 56 56 49 41 38 39 44 47 52 56 55 53 54 55 58 59 58 60 59 59 62 60 60 61 60 60 60 61 62 63 64 64 62 62 64 66 68 64 63 64 63 62 63 67 67 66 67 65 62 61 61 59 57 55 56 53 47 45 43 41 43 45 43 36 29 28 28 26 28 29 27 24 25
66 67 66 68 73 71 68 70 67 68 68 65 64 62 64 65 62 59 54 52 49 51 58 54 53 61 56 42 38 40 44 48 50 51 51 50 49 51 54 56 56 57 59 61 62 61 61 61 60 59 59 60 62 62 63 63 62 62 64 67 69 66 66 65 64 63 65 67 66 67 67 65 63 61 61 60 57 55 55 51 42 37 35 34 40 43 38 31 28 29 28 28 31 31 27 25 27
65 65 65 64 66 65 62 63 63 64 67 68 67 64 65 63 58 59 61 52 45 51 54 50 51 59 56 43 39 42 46 49 50 49 49 47 48 50 52 56 57 57 61 63 62 62 62 61 59 57 56 56 57 58 59 59 59 58 61 65 66 66 66 66 66 67 68 68 67 67 67 65 65 62 61 60 57 55 53 47 36 31 31 32 38 39 33 27 29 32 32 33 33 30 28 28 30
63 61 65 64 62 63 61 61 61 61 63 66 66 66 66 63 57 60 66 57 49 52 53 51 50 52 52 44 40 43 46 49 50 49 49 48 48 51 52 57 59 59 62 63 63 62 59 58 56 55 54 51 53 54 54 56 57 57 59 63 63 64 65 66 68 69 70 70 70 69 67 67 66 63 63 61 58 56 50 40 32 30 31 33 38 36 28 26 30 34 35 36 33 29 28 31 33
61 54 60 63 61 63 62 59 61 60 59 62 64 64 65 64 61 61 64 63 58 56 56 54 48 48 49 43 40 43 46 49 50 49 49 49 50 53 53 58 61 61 63 62 61 60 57 55 54 54 52 50 52 53 54 57 58 58 61 63 62 63 66 67 67 69 71 71 70 70 68 67 66 65 64 62 59 55 45 35 30 32 33 36 38 33 25 26 31 35 36 36 33 30 31 32 34
58 50 54 59 62 66 65 62 62 61 59 61 63 64 63 64 65 63 64 67 64 59 60 57 49 45 45 42 41 43 46 48 48 48 50 51 56 59 54 57 61 62 63 61 59 57 55 54 53 53 51 52 53 54 56 58 59 60 64 64 63 64 67 69 68 69 70 71 69 70 69 68 66 65 63 61 58 50 40 33 32 34 36 38 36 29 26 29 33 36 37 37 35 34 34 35 35
55 49 49 55 63 70 70 66 65 65 64 63 64 63 62 61 63 63 65 68 65 62 63 60 52 42 40 42 40 41 45 47 47 49 52 53 59 60 56 58 60 61 61 59 59 55 55 54 51 50 50 52 54 55 57 57 60 64 66 66 65 65 67 69 69 70 71 71 69 69 69 68 66 64 62 62 55 44 37 34 34 36 38 39 33 27 28 33 36 37 39 41 39 36 34 34 35
51 47 49 57 65 69 67 67 69 68 66 65 64 60 59 62 63 62 64 65 65 67 64 59 54 42 38 41 40 42 45 49 51 52 53 54 58 59 58 58 58 59 58 57 58 55 55 53 50 49 49 52 54 56 57 57 61 64 65 66 66 65 67 68 68 69 70 71 70 69 69 67 65 63 63 60 51 41 38 36 38 41 41 38 34 31 32 35 37 40 41 42 40 35 32 32 34
51 50 53 59 66 66 64 68 68 64 63 66 68 63 61 63 63 64 65 62 64 68 66 60 55 44 39 40 42 46 49 54 56 52 52 55 58 60 58 56 56 56 56 56 58 56 55 52 50 49 48 52 55 56 58 59 62 63 65 67 66 65 67 68 67 67 69 71 71 71 70 66 65 64 60 56 51 47 44 41 43 47 44 37 36 37 36 37 42 44 41 38 36 34 32 32 34
51 52 54 61 65 64 66 67 65 63 62 64 67 66 64 63 62 64 62 62 64 68 68 61 54 47 42 43 47 51 52 55 55 51 53 56 58 58 55 56 56 55 55 57 58 56 55 53 49 47 48 53 56 56 58 61 63 62 65 67 64 65 67 67 67 67 70 71 72 71 69 66 66 64 59 57 57 53 49 46 49 50 46 39 39 40 39 42 46 46 42 40 37 34 34 35 35
44 48 55 61 62 62 65 65 62 62 66 68 64 65 66 67 68 67 61 63 67 68 69 61 53 50 48 49 51 52 54 54 52 52 54 55 58 58 55 56 56 53 55 58 55 54 56 53 47 46 48 53 56 57 59 62 63 63 65 66 64 65 66 66 67 68 70 71 70 70 68 67 67 64 61 62 61 55 51 50 52 51 46 43 42 41 41 45 45 43 43 44 41 36 36 38 37
41 48 55 59 59 63 66 67 65 62 69 73 67 67 69 71 75 72 65 67 70 71 70 60 52 51 51 53 52 53 56 53 50 54 55 53 55 56 54 57 55 51 56 57 52 53 55 50 46 46 48 53 55 57 60 61 63 64 64 64 65 65 66 67 67 66 67 68 69 69 69 68 66 64 64 64 60 56 53 53 53 49 47 46 44 42 42 43 43 43 44 44 42 38 40 42 41
40 48 55 60 63 69 71 71 70 66 70 73 71 73 75 73 74 73 69 68 70 71 70 61 52 50 51 54 54 54 56 52 51 53 53 51 53 54 53 56 54 51 55 53 49 51 51 49 48 47 47 52 54 56 60 62 62 63 63 64 66 67 67 68 66 66 66 67 69 69 69 67 65 64 65 63 59 55 54 54 54 51 50 48 44 43 44 44 44 44 43 44 43 40 42 46 46
32 41 53 63 70 75 74 72 72 70 70 71 73 76 76 74 74 74 72 70 71 73 71 62 52 49 50 53 55 55 53 53 54 52 51 50 51 53 54 55 52 50 53 50 49 50 50 51 49 46 48 52 54 56 59 61 61 62 64 65 66 67 67 66 65 66 66 67 68 68 67 65 64 64 63 60 57 55 55 56 55 52 49 46 45 45 44 43 43 41 42 46 45 41 44 49 48
28 39 54 64 72 76 72 70 71 71 71 71 75 80 76 72 74 76 74 74 75 76 73 62 51 49 50 52 54 55 53 53 55 51 49 50 50 53 57 58 52 49 50 48 49 49 48 51 49 47 48 50 54 57 59 61 61 62 65 65 64 65 63 62 63 64 65 66 67 67 67 67 66 65 61 57 55 54 55 55 52 48 47 47 47 44 40 40 40 40 42 46 47 46 47 51 49
24 38 55 62 66 71 68 66 68 68 69 70 77 85 81 76 78 79 77 77 76 78 76 62 51 49 51 53 53 55 54 53 55 52 48 49 51 53 57 58 53 49 48 47 48 48 48 49 50 48 47 50 53 56 61 63 61 62 65 64 63 63 60 59 60 61 63 65 67 67 67 68 66 63 59 56 55 54 54 53 49 46 46 47 44 40 39 40 41 42 45 47 48 48 48 51 51
23 35 52 59 64 68 67 65 64 64 67 69 74 83 83 81 83 79 77 76 77 80 74 61 53 51 52 54 53 54 54 52 55 55 50 52 52 52 55 56 54 51 47 46 47 47 48 49 51 50 48 50 50 53 57 58 59 63 65 64 64 63 60 58 58 60 62 65 67 66 66 65 63 61 58 57 55 53 52 49 48 46 45 44 43 43 43 43 43 45 51 53 49 48 49 51 52
36 43 51 57 61 65 67 67 64 60 64 67 72 80 82 83 83 80 78 77 78 78 71 64 58 53 54 55 52 54 55 53 57 56 53 56 54 53 56 56 54 51 46 46 47 47 46 47 51 51 49 48 46 49 52 53 60 65 65 65 64 62 59 57 56 57 59 63 65 64 64 60 60 60 57 55 53 50 49 47 46 44 43 45 45 45 44 45 47 46 50 53 51 51 51 50 50
44 48 50 55 58 63 66 66 63 58 60 64 69 78 82 83 83 80 79 77 74 72 68 68 64 57 57 57 52 54 56 54 58 58 54 55 54 52 54 52 51 49 46 45 46 46 46 47 49 48 48 47 44 46 48 51 59 64 65 65 64 61 59 58 56 53 53 57 59 59 59 56 57 58 55 53 51 49 48 46 44 42 42 44 44 45 45 47 49 47 47 48 48 51 51 50 52
41 45 48 51 54 61 62 60 60 58 59 63 66 71 75 78 78 75 74 71 68 69 67 68 70 63 59 60 56 55 56 55 57 58 55 54 54 52 49 47 48 49 46 45 44 45 46 48 47 45 46 45 44 45 45 50 55 59 65 66 65 62 62 61 58 53 50 51 52 50 50 49 49 50 51 53 52 49 46 43 42 43 43 41 42 45 46 46 45 44 44 42 45 49 51 52 53
39 46 47 46 50 56 57 56 57 57 59 63 64 67 68 71 72 67 64 63 64 66 66 67 71 67 63 63 60 56 56 57 58 58 57 55 54 52 48 46 47 48 46 44 43 45 45 46 45 44 44 42 41 42 43 47 51 55 62 64 62 62 63 64 60 55 50 46 44 42 41 41 42 45 50 55 55 50 45 42 40 42 42 40 42 45 43 41 39 39 40 40 44 48 50 50 49
37 45 44 43 48 53 53 53 56 57 58 59 60 64 67 67 70 66 59 59 62 64 64 66 68 68 67 64 62 59 58 60 62 59 58 58 55 50 47 48 48 46 46 44 43 43 45 45 43 44 43 40 39 39 39 44 47 50 56 59 59 60 62 63 60 57 49 44 40 38 38 38 40 44 50 55 55 50 45 42 39 39 41 41 44 45 41 38 36 37 38 39 44 47 49 50 47
31 39 39 39 48 53 50 52 56 55 56 57 56 62 66 65 67 67 63 61 63 65 64 64 66 69 70 67 67 65 61 62 63 60 58 59 58 50 46 48 48 46 46 45 43 43 44 44 41 43 41 38 39 40 41 41 42 45 49 54 56 57 60 60 60 58 50 45 41 37 37 37 39 43 47 52 53 49 44 42 41 39 40 42 44 44 41 36 34 36 37 40 44 45 47 47 44
29 34 31 31 43 52 52 53 56 55 56 58 59 64 67 67 69 69 68 66 66 68 66 64 65 69 72 70 70 69 63 61 61 60 59 58 58 53 47 47 46 47 47 45 45 44 44 44 40 41 40 36 39 42 44 42 40 43 47 51 50 49 57 59 59 59 51 47 43 39 38 37 38 40 44 47 48 47 44 41 41 39 38 40 42 41 39 35 32 34 36 41 43 43 46 44 39
28 29 26 25 32 44 49 50 54 55 57 57 58 67 69 69 73 74 71 70 69 69 68 65 64 67 71 72 72 70 65 61 59 60 60 58 57 53 51 49 46 48 48 45 46 44 44 44 40 40 38 36 40 43 45 43 43 45 47 49 44 43 53 55 56 59 53 47 43 40 39 37 38 40 42 44 44 45 43 40 40 39 37 37 37 36 34 32 32 35 39 44 45 46 48 43 38
22 22 24 24 25 34 42 46 51 55 59 57 58 70 75 71 73 75 75 75 74 73 71 70 67 66 71 75 74 73 71 67 63 61 60 59 59 55 53 51 47 49 49 46 47 45 45 45 39 38 37 36 40 43 44 44 44 45 45 48 44 42 49 51 52 56 53 46 41 39 39 37 39 41 41 42 44 45 44 42 41 40 38 34 33 33 33 33 34 36 40 44 46 47 49 46 43
17 19 20 22 23 27 35 43 50 52 53 51 52 66 78 77 76 77 77 77 79 79 77 75 73 70 72 75 73 73 75 73 67 64 61 59 60 59 56 53 50 50 50 48 48 46 46 46 40 37 37 37 39 40 42 44 44 44 44 46 43 40 46 48 48 53 51 43 38 38 38 36 38 41 43 43 44 44 44 43 41 40 38 34 34 35 36 37 37 37 40 41 43 46 49 48 47
16 17 17 20 22 23 28 35 41 41 42 48 52 60 74 79 78 76 75 76 79 80 81 80 78 75 74 73 71 70 72 72 69 67 64 60 60 60 59 57 52 52 53 50 49 49 47 47 42 37 37 36 36 38 39 41 43 43 41 43 41 38 40 41 44 50 48 42 39 39 37 33 37 42 43 44 46 42 39 41 40 39 37 34 36 38 39 41 40 40 41 39 39 44 46 46 47
16 15 16 21 22 23 26 27 30 31 33 47 54 55 69 80 77 74 75 77 78 76 79 81 78 77 76 73 71 71 71 72 71 68 66 63 60 60 60 59 55 54 57 55 53 52 49 47 43 37 36 36 33 34 36 36 39 41 40 40 40 39 38 38 42 46 44 42 42 39 36 31 36 45 44 45 48 41 35 38 39 40 38 34 36 38 39 43 43 42 42 38 37 40 39 40 45
14 11 14 18 20 21 22 22 25 27 27 37 44 50 68 79 73 72 77 77 76 75 76 77 74 73 74 73 71 71 73 75 73 70 69 66 61 59 60 60 57 55 57 58 57 55 51 47 43 37 36 36 33 31 31 31 33 37 38 40 38 39 41 39 41 44 43 44 42 39 37 31 34 46 46 42 44 39 34 37 37 38 39 35 36 38 40 44 44 41 40 37 36 35 33 34 38
9 10 12 15 18 18 20 24 22 24 26 26 29 40 62 74 69 67 72 71 69 70 72 73 72 70 70 71 71 71 73 76 76 72 71 69 66 62 61 60 59 56 56 58 57 57 55 49 44 38 36 37 35 30 28 27 29 30 32 36 36 39 44 40 39 43 42 43 43 40 40 35 33 41 43 40 39 36 36 37 35 37 38 37 38 39 41 44 43 40 36 34 33 32 31 31 33
8 10 9 12 20 19 23 31 25 27 34 28 23 30 52 70 67 62 67 68 65 66 67 69 71 70 68 68 71 73 72 73 75 74 71 71 70 66 62 62 62 60 59 60 57 56 57 54 46 40 36 37 36 31 27 25 26 27 28 31 33 35 41 40 39 43 41 40 43 41 40 39 36 35 38 38 36 34 35 34 35 37 37 37 37 37 40 43 43 40 35 32 32 32 32 31 31
13 13 11 18 29 28 31 38 35 35 39 35 29 33 52 67 60 57 64 65 65 65 64 63 65 67 68 67 70 73 72 72 75 74 70 69 69 67 65 63 64 64 62 63 60 57 57 59 53 44 37 36 37 34 29 25 24 25 26 28 30 31 35 37 38 40 39 38 40 40 39 39 37 35 36 36 33 33 33 32 32 33 35 37 36 35 37 40 42 43 41 39 37 34 33 31 30
21 20 22 29 36 36 38 42 41 39 37 37 39 46 64 71 62 60 63 61 61 62 62 62 62 63 65 68 72 73 72 73 77 75 70 69 67 66 67 65 65 65 63 62 62 60 60 61 59 51 42 37 37 36 33 28 25 24 25 27 29 29 30 33 35 36 37 36 37 38 38 38 37 37 36 34 32 32 32 32 31 31 33 35 34 34 34 35 37 41 42 42 40 37 35 34 32
26 24 25 29 32 34 36 38 38 36 35 42 49 58 74 77 69 67 64 59 59 61 63 64 65 64 62 67 73 75 75 76 79 77 72 73 70 67 68 68 66 65 63 61 61 62 62 62 62 56 47 41 37 36 35 32 29 26 25 27 29 29 30 32 33 34 35 34 35 36 37 36 36 37 37 35 36 35 34 33 32 31 32 33 33 33 33 33 34 35 37 37 37 36 35 33 32
25 24 23 24 27 29 30 31 32 29 34 52 62 67 75 75 72 68 62 59 59 60 63 64 66 67 65 67 72 75 78 78 80 79 76 78 76 70 68 66 66 67 65 62 60 61 62 62 64 61 55 48 41 36 35 33 33 31 29 29 29 27 28 30 32 33 33 31 31 32 35 34 34 35 35 37 40 41 40 39 37 34 33 33 33 33 33 33 32 32 34 34 33 33 32 31 31
24 25 25 26 26 28 29 29 30 26 38 65 75 73 74 72 70 67 62 65 65 63 64 63 64 67 68 72 74 75 78 80 82 83 81 82 79 76 71 66 66 69 67 64 62 63 64 63 65 65 61 55 48 41 37 34 34 34 33 32 31 28 26 27 28 29 31 32 30 30 33 36 36 36 37 39 41 43 44 44 42 39 36 34 33 32 32 31 31 32 32 32 32 32 32 32 32
21 23 25 28 27 29 29 31 33 28 41 71 80 78 80 75 73 73 69 72 72 69 68 66 66 69 71 75 76 77 79 81 84 85 83 83 81 80 78 72 68 66 66 66 66 67 67 64 66 70 67 60 54 47 41 36 35 35 34 34 34 33 30 28 26 26 30 33 32 31 33 37 38 39 40 40 41 41 42 42 42 42 40 37 33 31 31 31 31 31 31 32 33 33 34 35 34
22 21 22 27 29 31 31 33 36 31 42 71 80 79 84 82 79 79 74 71 70 69 70 69 70 75 77 76 77 80 80 79 81 84 83 81 80 81 82 78 73 68 65 66 68 69 67 65 68 75 74 66 60 56 48 41 37 36 36 36 36 37 38 35 31 29 30 30 30 32 34 36 37 38 40 41 41 40 39 39 38 39 40 39 36 34 32 32 32 32 32 34 35 35 35 36 36
22 22 20 22 24 29 31 32 34 32 41 63 76 80 86 86 83 79 74 71 70 69 70 71 71 75 77 77 78 79 79 78 79 80 80 78 77 78 78 79 79 74 68 65 67 68 68 71 74 76 76 70 65 63 58 52 45 40 38 38 38 39 42 43 40 37 36 33 31 32 34 35 35 36 37 37 38 39 39 38 37 37 38 37 37 37 36 35 34 34 34 35 36 36 37 39 40
25 26 25 26 26 27 30 32 32 35 41 52 69 83 86 83 81 78 76 76 74 72 72 74 74 73 72 74 77 77 77 78 79 79 79 77 78 78 78 79 81 80 74 69 69 70 70 75 78 77 74 69 64 62 62 64 61 52 46 44 42 42 43 46 47 46 44 42 39 37 37 36 35 35 36 36 36 37 38 38 37 37 37 37 36 36 36 36 35 34 34 35 37 37 40 43 44
30 29 28 33 34 30 32 37 36 37 41 44 60 81 84 78 77 75 75 75 72 69 70 72 73 72 70 70 74 78 78 77 78 79 79 78 79 78 78 79 79 81 80 74 74 75 74 75 76 75 74 71 69 66 67 71 72 64 56 51 49 48 46 45 47 48 47 46 45 44 43 41 40 39 38 37 36 36 36 37 36 37 37 37 35 34 35 36 37 36 35 35 36 38 42 44 44